GFA101 OBBI-OEDF

Flight info

Callsign GFA101
Flight time 0h 15m
Altitude 6000
Route B457 NARMI NARMI1K
Aircraft A320/M-SDE3FGHIRWY/LB1

Departure

Time 2026-04-27 05:10
Airport Bahrain International Airport (OBBI)

Arrival

Time 2026-04-27 05:26
Airport King Fahd International Airport (OEDF)
Time Latitude Longitude Altitude Speed Heading
2026-04-27 04:58 26.26891 50.62966 21 ft 0 kts 213°
2026-04-27 05:04 26.26900 50.62973 21 ft 2 kts 213°
2026-04-27 05:05 26.26914 50.62983 23 ft 2 kts 213°
2026-04-27 05:05 26.26928 50.62993 21 ft 2 kts 213°
2026-04-27 05:05 26.26942 50.63003 25 ft 2 kts 188°
2026-04-27 05:05 26.26956 50.63001 23 ft 0 kts 127°
2026-04-27 05:06 26.26941 50.63040 21 ft 13 kts 111°
2026-04-27 05:07 26.26911 50.63125 21 ft 11 kts 86°
2026-04-27 05:07 26.26961 50.63184 20 ft 11 kts 51°
2026-04-27 05:07 26.26943 50.63255 20 ft 10 kts 124°
2026-04-27 05:07 26.26907 50.63314 20 ft 9 kts 124°
2026-04-27 05:08 26.26876 50.63366 20 ft 10 kts 123°
2026-04-27 05:08 26.26767 50.63555 22 ft 39 kts 122°
2026-04-27 05:08 26.26618 50.63812 22 ft 40 kts 123°
2026-04-27 05:08 26.26468 50.64073 20 ft 40 kts 122°
2026-04-27 05:09 26.26316 50.64337 19 ft 39 kts 122°
2026-04-27 05:09 26.26202 50.64536 19 ft 27 kts 122°
2026-04-27 05:09 26.26097 50.64718 19 ft 29 kts 122°
2026-04-27 05:09 26.26022 50.64902 21 ft 26 kts 79°
2026-04-27 05:10 26.26146 50.64994 19 ft 20 kts 330°
2026-04-27 05:10 26.26287 50.64742 16 ft 80 kts 304°
2026-04-27 05:10 26.26755 50.63933 17 ft 163 kts 303°
2026-04-27 05:10 26.27419 50.62811 738 ft 173 kts 307°
2026-04-27 05:11 26.28087 50.61674 1648 ft 180 kts 306°
2026-04-27 05:11 26.28789 50.60439 2073 ft 197 kts 305°
2026-04-27 05:11 26.29559 50.59106 2448 ft 216 kts 306°
2026-04-27 05:11 26.30341 50.57592 2801 ft 239 kts 291°
2026-04-27 05:12 26.30532 50.55651 3266 ft 265 kts 272°
2026-04-27 05:12 26.30504 50.53572 4096 ft 269 kts 270°
2026-04-27 05:12 26.30459 50.51499 5065 ft 268 kts 270°
2026-04-27 05:12 26.30406 50.49392 5691 ft 273 kts 269°
2026-04-27 05:13 26.30354 50.47287 5920 ft 271 kts 269°
2026-04-27 05:13 26.30307 50.45189 5991 ft 270 kts 269°
2026-04-27 05:13 26.30264 50.43100 6002 ft 270 kts 269°
2026-04-27 05:13 26.30226 50.41012 6004 ft 270 kts 269°
2026-04-27 05:14 26.30203 50.38914 6005 ft 271 kts 269°
2026-04-27 05:14 26.30169 50.36816 6005 ft 271 kts 268°
2026-04-27 05:14 26.30112 50.34713 6006 ft 271 kts 268°
2026-04-27 05:14 26.30039 50.32611 6006 ft 272 kts 268°
2026-04-27 05:15 26.29956 50.30511 6004 ft 271 kts 267°
2026-04-27 05:15 26.29865 50.28411 6006 ft 271 kts 267°
2026-04-27 05:15 26.29769 50.26315 6004 ft 271 kts 267°
2026-04-27 05:15 26.29671 50.24218 6003 ft 271 kts 267°
2026-04-27 05:16 26.29574 50.22124 6002 ft 271 kts 267°
2026-04-27 05:16 26.29477 50.20020 6006 ft 272 kts 267°
2026-04-27 05:16 26.29380 50.17944 6003 ft 272 kts 266°
2026-04-27 05:16 26.29281 50.15842 6000 ft 271 kts 266°
2026-04-27 05:17 26.29180 50.13755 5996 ft 271 kts 266°
2026-04-27 05:17 26.29081 50.11721 5983 ft 254 kts 266°
2026-04-27 05:17 26.29019 50.10446 5978 ft 244 kts 266°
2026-04-27 05:17 26.28933 50.08620 5975 ft 230 kts 266°
2026-04-27 05:18 26.28848 50.06845 5979 ft 229 kts 266°
2026-04-27 05:18 26.28762 50.05076 5978 ft 228 kts 266°
2026-04-27 05:18 26.28670 50.03311 5876 ft 227 kts 266°
2026-04-27 05:18 26.28571 50.01555 5534 ft 227 kts 266°
2026-04-27 05:19 26.28467 49.99799 5181 ft 227 kts 266°
2026-04-27 05:19 26.28356 49.98043 4839 ft 227 kts 266°
2026-04-27 05:19 26.28235 49.96289 4519 ft 227 kts 266°
2026-04-27 05:19 26.28124 49.94577 4398 ft 217 kts 266°
2026-04-27 05:20 26.28019 49.92940 4279 ft 207 kts 266°
2026-04-27 05:20 26.27915 49.91362 4131 ft 202 kts 266°
2026-04-27 05:20 26.27810 49.89809 3922 ft 200 kts 266°
2026-04-27 05:20 26.27700 49.88265 3657 ft 200 kts 268°
2026-04-27 05:21 26.27841 49.86745 3451 ft 197 kts 289°
2026-04-27 05:21 26.28442 49.85391 3351 ft 193 kts 309°
2026-04-27 05:21 26.29374 49.84385 3160 ft 180 kts 328°
2026-04-27 05:21 26.30443 49.83817 2965 ft 164 kts 345°
2026-04-27 05:22 26.31504 49.83490 2765 ft 153 kts 346°
2026-04-27 05:22 26.32500 49.83183 2579 ft 145 kts 347°
2026-04-27 05:22 26.33461 49.82888 2407 ft 142 kts 347°
2026-04-27 05:22 26.34406 49.82597 2228 ft 141 kts 348°
2026-04-27 05:23 26.35344 49.82308 2045 ft 139 kts 347°
2026-04-27 05:23 26.36276 49.82021 1868 ft 139 kts 347°
2026-04-27 05:23 26.37217 49.81731 1690 ft 140 kts 347°
2026-04-27 05:23 26.38158 49.81441 1513 ft 140 kts 347°
2026-04-27 05:24 26.39091 49.81153 1329 ft 139 kts 347°
2026-04-27 05:24 26.40023 49.80866 1156 ft 139 kts 347°
2026-04-27 05:24 26.40953 49.80579 977 ft 139 kts 346°
2026-04-27 05:24 26.41881 49.80294 812 ft 137 kts 345°
2026-04-27 05:25 26.42801 49.80009 636 ft 137 kts 345°
2026-04-27 05:25 26.43717 49.79727 429 ft 136 kts 345°
2026-04-27 05:25 26.44631 49.79445 303 ft 135 kts 344°
2026-04-27 05:25 26.45519 49.79162 108 ft 132 kts 345°
2026-04-27 05:26 26.46371 49.78905 90 ft 104 kts 344°
2026-04-27 05:26 26.46809 49.78771 86 ft 57 kts 345°
2026-04-27 05:26 26.47107 49.78716 88 ft 39 kts
2026-04-27 05:26 26.47288 49.78762 90 ft 23 kts 15°
2026-04-27 05:27 26.47433 49.78811 88 ft 13 kts 43°
2026-04-27 05:27 26.47472 49.78907 85 ft 14 kts 74°
2026-04-27 05:27 26.47501 49.79022 86 ft 16 kts 75°
2026-04-27 05:27 26.47460 49.79121 86 ft 16 kts 162°
2026-04-27 05:28 26.47359 49.79152 87 ft 15 kts 165°
2026-04-27 05:28 26.47270 49.79194 86 ft 13 kts 152°
2026-04-27 05:28 26.47192 49.79237 85 ft 12 kts 154°
2026-04-27 05:28 26.47129 49.79275 87 ft 10 kts 134°
2026-04-27 05:29 26.47138 49.79335 87 ft 8 kts 65°
2026-04-27 05:29 26.47147 49.79357 87 ft 0 kts 65°